Regional Weather Roundup
Issued by NWS

Home | Current Version | Previous Version | Graphics & Text | Print | Product List | Glossary On
Versions: 1 2 3 4 5 6 7 8 9 10 11 12 13 14 15 16 17 18 19 20 21 22 23 24 25 26 27 28 29 30 31 32 33 34 35 36 37 38 39 40 41 42 43 44 45 46 47 48 49 50
000
ASUS43 KIND 061309
RWRIN

WEATHER ROUNDUP FOR INDIANA
NATIONAL WEATHER SERVICE INDIANAPOLIS IN
900 AM EDT FRI MAY 06 2016

NOTE: "FAIR" INDICATES FEW OR NO CLOUDS BELOW 12,000 FEET WITH NO
SIGNIFICANT WEATHER AND/OR OBSTRUCTIONS TO VISIBILITY.

* - STATION DOES NOT REPORT WEATHER SUCH AS PRECIPITATION OR FOG.

+ - STATION NOT QUALITY CONTROLLED BY THE NATIONAL WEATHER SERVICE.
    USE DATA WITH CAUTION...ESPECIALLY DEWPOINT AND RELATIVE
    HUMIDITY OBSERVATIONS.

INZ001>003-010>013-019-020-061400-
NORTHWEST INDIANA

CITY           SKY/WX    TMP DP  RH WIND       PRES   REMARKS
GARY /AIRPORT/ MOSUNNY   54  48  82 CALM      30.01S
KNOX *+        SUNNY     45  37  76 CALM      30.01S
LA PORTE +     SUNNY     51  47  84 W3        30.01S
MICHIGAN CITY+ MOSUNNY   45  45 100 SW3       30.02R
MONTICELLO +   SUNNY     51  40  65 CALM      30.02R
RENSSELAER +   SUNNY     52  45  76 W5        30.03R
VALPARAISO     SUNNY     52  42  69 W5        30.02R

$$

LMZ046-743>745-061400-
SOUTHERN LAKE MICHIGAN

STATION/POSITION TIME  TEMP    WIND        PRES    WAVE
                       AIR SEA DIR/SP/G            HT
                 (UTC) (F)     (DEG/KT/KT) (MB)    (FT)
BURNS HARBOR     1303   52     190/  4/  8 1016.6S
MICHIGAN CITY    1200   45     160/  3/  4   N/A

$$

INZ004-005-014>016-021>024-061400-
NORTH CENTRAL INDIANA

CITY           SKY/WX    TMP DP  RH WIND       PRES   REMARKS
ELKHART        SUNNY     48  45  87 CALM      30.01R
GOSHEN         SUNNY     49  41  74 NW3       30.01R
LOGANSPORT +   SUNNY     48  41  76 CALM      30.03R
PERU/GRISSOM   SUNNY     49  43  79 NW5       30.00R
ROCHESTER +    SUNNY     52  45  76 CALM      30.02R
SOUTH BEND     SUNNY     47  43  86 CALM      30.01R
WARSAW +       MOSUNNY   50  39  66 NW3       30.01R

$$

INZ006>009-017-018-025>027-061400-
NORTHEAST INDIANA

CITY           SKY/WX    TMP DP  RH WIND       PRES   REMARKS
ANGOLA *+        N/A     50  39  66 N5        29.99R
AUBURN +       SUNNY     50  39  66 NW7       30.00R
FORT WAYNE     MOSUNNY   51  39  63 NW5       30.00R
HUNTINGTON +   SUNNY    N/A N/A N/A NW6       30.00R

$$

INZ028-029-035-036-043>045-051>053-061400-
WEST CENTRAL INDIANA

CITY           SKY/WX    TMP DP  RH WIND       PRES   REMARKS
CRAWFORDSVL +  SUNNY     49  46  92 CALM      30.02S
GREENCASTLE +  SUNNY     52  45  76 NW3       30.03S
LAFAYETTE      SUNNY     48  44  86 CALM      30.02S
TERRE HAUTE    SUNNY     53  47  79 CALM      30.04R

$$

INZ030>032-037>040-046>048-054>057-064-065-061400-
CENTRAL INDIANA

CITY           SKY/WX    TMP DP  RH WIND       PRES   REMARKS
ANDERSON       SUNNY     48  41  76 N6        30.01
CP ATTERBURY + SUNNY     52  43  71 NW6       30.02R
COLUMBUS       SUNNY     50  46  87 N7        30.02R
FISHERS *+     SUNNY     50  45  81 NW5       30.02R
FRANKFORT +      N/A     52  35  53 CALM      30.03S
GREENWOOD *+   SUNNY     52  43  71 N5        30.02R
INDIANAPOLIS   MOSUNNY   53  40  61 NW7       30.01R
-EAGLE CREEK   SUNNY     53  42  66 NW6       30.01R
KOKOMO *+      SUNNY     52  39  62 NW6       30.01R
MARION +       SUNNY     47  40  77 N6        30.01R
SHELBYVILLE    SUNNY     53  43  68 N7        30.00R
ZIONSVILLE +   SUNNY     50  41  71 NW6       30.02S

$$

INZ033-034-041-042-049-050-058-059-061400-
EAST CENTRAL INDIANA

CITY           SKY/WX    TMP DP  RH WIND       PRES   REMARKS
MUNCIE         SUNNY     52  40  63 N6        30.00R

$$

INZ060-061-067>069-081>083-085>088-061400-
SOUTHWEST INDIANA

CITY           SKY/WX    TMP DP  RH WIND       PRES   REMARKS
EVANSVILLE     SUNNY     57  45  64 CALM      30.05R
HUNTINGBURG *+ SUNNY     54  46  76 NW5       30.04R
WASHINGTON +   SUNNY     52  48  87 NW6       30.03S

$$

INZ062-063-066-070>080-084-089>092-061400-
SOUTH CENTRAL AND SOUTHEAST INDIANA

CITY           SKY/WX    TMP DP  RH WIND       PRES   REMARKS
BEDFORD +      SUNNY     52  48  87 CALM      30.02R
BLOOMINGTON    SUNNY     53  43  68 CALM      30.03R
MADISON *+     SUNNY     50  43  76 NW5       30.02R
NORTH VERNON + MOSUNNY   50  50 100 CALM      30.01R
SEYMOUR +      SUNNY     54  45  71 CALM      30.01R

$$




USA.gov is the U.S. government's official web portal to all federal, state and local government web resources and services.